Regional Weather Roundup
Issued by NWS

Home | Current Version | Previous Version | Text Only | Print | Product List | Glossary Off
Versions: 1 2 3 4 5 6 7 8 9 10 11 12 13 14 15 16 17 18 19 20 21 22 23 24 25 26 27 28 29 30 31 32 33 34 35 36 37 38 39 40 41 42 43 44 45 46 47 48 49 50

000
ASUS43 KMKX 281711
RWRWI

WISCONSIN REGIONAL WEATHER ROUNDUP
NATIONAL WEATHER SERVICE MILWAUKEE/SULLIVAN WI
1200 PM CDT MON JUL 28 2014

NOTE: "FAIR" INDICATES FEW OR NO CLOUDS BELOW 12,000 FEET WITH NO
SIGNIFICANT WEATHER AND/OR OBSTRUCTIONS TO VISIBILITY.

WIZ001-002-006>008-014>016-023>028-281800-
NORTHWEST WISCONSIN

CITY           SKY/WX    TMP DP  RH WIND       PRES   REMARKS
SUPERIOR ARPT  MOSUNNY   72  55  54 NW9G16    30.17S
ASHLAND        PTSUNNY   71  55  56 N10G17    30.15S
HAYWARD        CLOUDY    69  50  50 VRB7      30.18S
SIREN          PTSUNNY   70  51  51 NW6       30.20S
RICE LAKE      CLOUDY    70  50  49 NW9       30.20S
LADYSMITH      PTSUNNY   70  51  52 N14       30.18S
EAU CLAIRE     CLOUDY    72  51  47 NW9       30.17S
MENOMONIE      CLOUDY    71  52  50 W8        30.19F
NEW RICHMOND   CLOUDY    70  54  57 NW9       30.20F
OSCEOLA        PTSUNNY   70  57  62 NW5       30.22F
$$

WIZ003>005-009-010-017-018-281800-
NORTH CENTRAL WISCONSIN

CITY           SKY/WX    TMP DP  RH WIND       PRES   REMARKS
WOODRUFF       PTSUNNY   72  53  50 NW13G18   30.13F
RHINELANDER    MOSUNNY   67  50  54 NW9G17    30.13F
EAGLE RIVER    CLOUDY    67  47  48 NW16      30.12S
LAND O LAKES   CLOUDY    67  47  49 N14G20    30.13S
PHILLIPS       CLOUDY    67  52  57 N9        30.15S
TOMAHAWK       PTSUNNY   67  49  51 N12G18    30.14S
MEDFORD        MOSUNNY   68  51  55 N13G18    30.15F
MERRILL        PTSUNNY   69  53  54 N15G23    30.12S
$$

WIZ029-030-035-036-043>047-281800-
CENTRAL WISCONSIN

CITY           SKY/WX    TMP DP  RH WIND       PRES   REMARKS
WAUSAU         MOSUNNY   69  49  48 NW15G28   30.11F
MOSINEE        MOSUNNY   70  54  56 NW14      30.14F
MARSHFIELD     SUNNY     71  52  50 NW17      30.15S
STEVENS POINT  MOSUNNY   68  51  54 NW10G16   30.13F
WAUPACA        SUNNY     72  51  47 N10G16    30.12F
WAUTOMA        PTSUNNY   70  50  49 N13       30.13F
WISC RAPIDS    MOSUNNY   71  51  49 NW15      30.15F
CAMP DOUGLAS   PTSUNNY   72  55  56 N10       30.15S
$$

WIZ011>013-019>022-031-037>040-048>050-281800-
NORTHEAST WISCONSIN

CITY           SKY/WX    TMP DP  RH WIND       PRES   REMARKS
ANTIGO         PTSUNNY   67  51  57 N13G20    30.11F
STURGEON BAY   SUNNY     61  43  51 N12       30.09F
GREEN BAY      SUNNY     66  50  56 NW9       30.10F
MANITOWOC      SUNNY     64  47  53 N10       30.10R
APPLETON       MOSUNNY   64  48  55 NW8       30.12F
CLINTONVILLE   SUNNY     68  50  52 N3        30.10F
OSHKOSH        PTSUNNY   67  51  56 NW7       30.11F
$$

WIZ032>034-041-042-053>061-281800-
SOUTHWEST WISCONSIN

CITY           SKY/WX    TMP DP  RH WIND       PRES   REMARKS
LA CROSSE      PTSUNNY   74  49  41 NW10      30.16F
SPARTA         MOSUNNY   71  48  43 N8        30.16F
VIROQUA        PTSUNNY   69  50  51 N8        30.18S
BOSCOBEL       MOSUNNY   74  49  41 VRB5      30.17S
PRAIRIE DU CHI SUNNY     71  44  37 N10       30.17S
PLATTEVILLE    FAIR      69  49  49 N15G22    30.17S
$$

WIZ056-057-062-063-064-067-068-281800-
SOUTH CENTRAL WISCONSIN

CITY           SKY/WX    TMP DP  RH WIND       PRES   REMARKS
BARABOO/DELLS  CLOUDY    69  46  43 N6        30.14S
LONE ROCK      MOSUNNY   74  51  44 N12       30.15F
WATERTOWN      MOSUNNY   67  50  54 N13G18    30.11F
MADISON        MOSUNNY   70  49  47 N14G21    30.14S
MIDDLETON      FAIR      70  47  44 N9G17     30.14F
MONROE         MOSUNNY   68  48  49 N17G24    30.13F
JANESVILLE     MOSUNNY   70  45  40 N14G20    30.12S
$$

WIZ051-052-058>065-066-070>072-281800-
SOUTHEAST WISCONSIN

CITY           SKY/WX    TMP DP  RH WIND       PRES   REMARKS
MILWAUKEE      MOSUNNY   65  49  56 NE14      30.10S
WAUKESHA       NOT AVBL
MILWAUKEE/TIMM SUNNY     66  45  45 N12G17    30.10S
RACINE         SUNNY     64  48  56 N13G25    30.11S
BURLINGTON     SUNNY     66  45  46 N15G21    30.10S
KENOSHA        SUNNY     65  45  48 NE21G29   30.10S
FOND DU LAC    CLOUDY    66  48  52 N10       30.12S
SHEBOYGAN      CLOUDY    65  48  54 N15       30.09S
WEST BEND      MOSUNNY   64  46  52 N12       30.10S
JUNEAU         PTSUNNY   65  45  48 N12       30.13S
$$

LSZ147-162-281800-
LAKE SUPERIOR

STATION/POSITION TIME  TEMP    WIND        PRES    WAVE
                       AIR SEA DIR/SP/G            HT/PER
                 (UTC) (F)     (DEG/KT/KT) (MB)    (FT/S)
W MID LAKE BUOY  1650   48 44  260/ 10/ 10 1019.6F   1
PORT WING        1600   64     260/  7/  9 1021.3S
SAXON HARBOR     1600           CALM  /  4 1021.0S
$$

LMZ867-665-643>646-281800-
LAKE MICHIGAN

STATION/POSITION TIME  TEMP    WIND        PRES    WAVE
                       AIR SEA DIR/SP/G            HT/PER
                 (UTC) (F)     (DEG/KT/KT) (MB)    (FT/S)
N MID LAKE BUOY  1650   54 52  310/  6/  6 1017.8F   2/ 4
NORTHPORT PIER   1600   57     330/  8/ 11 1019.0S
SISTER BAY       1640   61      30/ 11/ 12   N/A
KEWAUNEE LAKESHO 1600   55      20/  3/  6 1019.8R
SHEBOYGAN LAKESH 1700   56      10/  6/  7 1019.6R
PORT WASHINGTON  1600   65     360/ 10/ 18 1019.3
ATWATER BUOY     1700   61      20/ 14     1019.9S
MILWAUKEE LAKESH 1600   61      10/ 17/ 21   N/A
S MID LAKE BUOY  1650   56 60  340/ 23/ 29 1017.7R   7/ 8
KENOSHA   LAKESH 1700   59      20/ 16/ 20 1019.0R
$$

TC  - TEMPERATURE IN CELSIUS
VSB - VISIBILITY IN STATUTE MILES
WCI - WIND CHILL INDEX
HX  - HEAT INDEX



USA.gov is the U.S. government's official web portal to all federal, state and local government web resources and services.